This is the latest recevied weather packets stored in our database for station/object KC8YYF. If no packets are shown the sender has not sent any weather packets the latest 10 day(s).
| Time | Temp. | Humidity | Pressure | Rain* | Wind** | Luminosity | Snow |
|---|---|---|---|---|---|---|---|
| 1777469260 | 12.78° C | 99% | 1010.4 hPa | 0 mm | - | 39 W/m² | - |
| 1777468955 | 12.78° C | 99% | 1010.6 hPa | 0 mm | - | 35 W/m² | - |
| 1777468651 | 12.78° C | 99% | 1010.5 hPa | 0 mm | - | 21 W/m² | - |
| 1777468348 | 12.22° C | 99% | 1010.3 hPa | 0 mm | - | 17 W/m² | - |
| 1777468044 | 12.22° C | 99% | 1010.3 hPa | 0 mm | - | 42 W/m² | - |
| 1777467740 | 12.22° C | 99% | 1010.2 hPa | 0 mm | - | 32 W/m² | - |
| 1777467436 | 12.22° C | 99% | 1010.2 hPa | 0 mm | - | 20 W/m² | - |
| 1777467131 | 12.22° C | 99% | 1010.3 hPa | 0 mm | - | 29 W/m² | - |
| 1777466829 | 12.22° C | 99% | 1010.5 hPa | 0 mm | - | 35 W/m² | - |
| 1777466527 | 12.22° C | 99% | 1010.7 hPa | 0 mm | - | 29 W/m² | - |
| 1777466223 | 12.22° C | 99% | 1010.7 hPa | 0 mm | - | 38 W/m² | - |
| 1777465919 | 12.22° C | 99% | 1010.6 hPa | 0 mm | - | 18 W/m² | - |
| 1777465615 | 12.22° C | 99% | 1010.6 hPa | 0 mm | - | 31 W/m² | - |
| 1777465311 | 12.22° C | 99% | 1010.7 hPa | 0 mm | - | 32 W/m² | - |
| 1777465005 | 12.22° C | 99% | 1010.6 hPa | 0 mm | - | 29 W/m² | - |
| 1777464700 | 12.22° C | 99% | 1010.9 hPa | 0 mm | - | 27 W/m² | - |
| 1777464397 | 11.67° C | 99% | 1011.1 hPa | 0 mm | - | 23 W/m² | - |
| 1777464093 | 11.67° C | 99% | 1011.1 hPa | 0 mm | - | 15 W/m² | - |
| 1777463792 | 11.67° C | 99% | 1011.5 hPa | 0 mm | - | 10 W/m² | - |
| 1777463487 | 11.67° C | 99% | 1011.1 hPa | 0 mm | - | 10 W/m² | - |
| 1777463184 | 11.67° C | 99% | 1011.4 hPa | 0 mm | - | 10 W/m² | - |
| 1777462879 | 11.67° C | 99% | 1011.4 hPa | 0 mm | - | 6 W/m² | - |
| 1777462576 | 11.67° C | 99% | 1011.5 hPa | 0 mm | - | 5 W/m² | - |
| 1777462271 | 11.67° C | 99% | 1011.3 hPa | 0 mm | - | 4 W/m² | - |
| 1777461967 | 11.67° C | 99% | 1011.2 hPa | 0 mm | - | 2 W/m² | - |
* Rain latest hour (hover to see other rain measurements)
** Current wind speed in m/s (hover to see current wind gust speed)